Regional Weather Roundup
Issued by NWS

Home | Current Version | Previous Version | Graphics & Text | Print | Product List | Glossary On
Versions: 1 2 3 4 5 6 7 8 9 10 11 12 13 14 15 16 17 18 19 20 21 22 23 24 25 26 27 28 29 30 31 32 33 34 35 36 37 38 39 40 41 42 43 44 45 46 47 48 49 50
000
ASUS43 KLOT 201406
RWRIL

ILLINOIS REGIONAL WEATHER ROUNDUP
NATIONAL WEATHER SERVICE CHICAGO/ROMEOVILLE IL
900 AM CDT WED AUG 20 2014

NOTE: "FAIR" INDICATES FEW OR NO CLOUDS BELOW 12,000 FEET WITH NO
SIGNIFICANT WEATHER AND/OR OBSTRUCTIONS TO VISIBILITY.

* THESE STATIONS ARE NOT UNDER NWS QUALITY CONTROL. THEY ALSO MAY NOT
  REPORT WEATHER SUCH AS PRECIPITATION OR FOG.

ILZ001-002-007-009-015-016-024-201500-
NORTHWEST ILLINOIS

CITY           SKY/WX    TMP DP  RH WIND       PRES   REMARKS
MOLINE         PTSUNNY   73  65  75 SW3       29.89R
STERLING*      SUNNY     75  68  78 NW7       29.89R
SAVANNA*       SUNNY     74  64  70 W3        29.88S
$$

ILZ003-004-008-010-011-017-018-201500-
NORTH CENTRAL ILLINOIS

CITY           SKY/WX    TMP DP  RH WIND       PRES   REMARKS
ROCKFORD       MOSUNNY   72  64  76 SW3       29.89R
FREEPORT*      SUNNY     73  68  84 W7        29.91R
ROCHELLE*      SUNNY     70  66  85 SW6       29.89R
DE KALB*       SUNNY     72  64  75 SW5       29.90R
PERU*          SUNNY     74  66  77 S7        29.90R
$$

ILZ005-006-012>014-019>023-201500-
NORTHEAST ILLINOIS

CITY           SKY/WX    TMP DP  RH WIND       PRES   REMARKS
CHICAGO-OHARE  MOSUNNY   74  63  68 VRB3      29.87R
CHICAGO-MIDWAY MOSUNNY   75  66  73 CALM      29.87R
AURORA         SUNNY     72  64  76 CALM      29.88S
LANSING*       SUNNY     74  66  75 CALM      29.88S
JOLIET*        SUNNY     72  64  75 CALM      29.89S
WAUKEGAN       SUNNY     74  64  71 CALM      29.86R
DUPAGE AIRPORT SUNNY     74  65  73 CALM      29.87R
KANKAKEE*      SUNNY     73  68  84 SW3       29.90R
WHEELING       SUNNY     76  64  66 NW5       29.88R
MORRIS*        SUNNY     73  68  84 SW6       29.89R
ROMEOVILLE*    SUNNY     72  65  80 W3        29.88F
NORTHERLY ISL    N/A     76  63  64 W5          N/A
$$

LMZ740>746-201500-
SOUTHERN LAKE MICHIGAN

STATION/POSITION SKY/WX   TEMP    WIND        PRES    VSBY  WAVE
                          AIR SEA DIR/SP/G                  HT/PER
                          (F)     (DEG/KT/KT) (MB)    (MI)  (FT/S)
SOUTHERN BUOY              67 66  260/  6/  8 1011.1R         0
WAUKEGAN HARBOR            73     250/  3/  6   N/A
HARRISON CRIB              73     260/  6/  7   N/A
BURNHAM HARBOR             76     260/  5/  7   N/A
CALUMET HARBOR             74     200/  2/  5 1010.3F
BURNS HARBOR               72     260/  5/  6   N/A
MICHIGAN CITY              71     220/  9/ 11   N/A
MICHIGAN CITY 6N           70 70  240/  6/ 10   N/A           1/ 2
ST. JOSEPH                 70 70  220/  4/  6   N/A           1/ 2
$$

ILZ025>027-034>036-040-047-049-050-058-095>099-201500-
WEST-CENTRAL ILLINOIS

CITY           SKY/WX    TMP DP  RH WIND       PRES   REMARKS
QUINCY         CLOUDY    73  71  93 S3        29.89R
GALESBURG*     CLOUDY    70  68  92 W3        29.91R THUNDER
MACOMB*        TSTM      68  68 100 S6        29.90S VSB 3/4
JACKSONVILLE*  CLOUDY    73  70  92 CALM      29.91R
PITTSFIELD*    LGT RAIN  73  70  91 SE5       29.91R
$$

ILZ028>032-037-038-041>044-048-051>054-059>061-201500-
CENTRAL ILLINOIS

CITY           SKY/WX    TMP DP  RH WIND       PRES   REMARKS
PONTIAC        SUNNY     75  70  83 SW3       29.90S
DECATUR        MOSUNNY   78  72  81 S6        29.91F HX  80
PEORIA         PTSUNNY   76  69  79 CALM      29.91R
LACON*         SUNNY     73  68  86 SW3       29.89R
LINCOLN*       PTSUNNY   74  73  96 CALM      29.89R
SPRINGFIELD    TSTM      74  70  87 W13       29.94R VSB 1
TAYLORVILLE    CLOUDY    72  70  94 S8        29.90F
$$

ILZ033-039-045-046-055>057-062-063-201500-
EAST-CENTRAL ILLINOIS

CITY           SKY/WX    TMP DP  RH WIND       PRES   REMARKS
CHAMPAIGN      MOSUNNY   75  72  90 SW3       29.92S
DANVILLE*      SUNNY     73  70  88 CALM      29.90R
RANTOUL*       SUNNY     76  68  77 SW3       29.93S
MATTOON        MOSUNNY   79  72  79 SW7       29.93R HX  82
PARIS*         SUNNY     76  74  95 CALM      29.93R
$$

ILZ079-100>102-201500-
SOUTHWEST ILLINOIS

CITY           SKY/WX    TMP DP  RH WIND       PRES   REMARKS
ALTON          PTSUNNY   72  72 100 CALM      29.92F
BELLEVILLE     MOSUNNY   72  72 100 N2        29.93R
CAHOKIA*       CLOUDY    75  72  90 CALM      29.93R
SPARTA*        CLOUDY    73  70  92 CALM      29.94S
$$

ILZ064>066-069>071-074>076-080>082-084>086-088>090-092>094-201500-
SOUTH-CENTRAL ILLINOIS

CITY           SKY/WX    TMP DP  RH WIND       PRES   REMARKS
CARBONDALE     CLOUDY    74  71  91 SW5       29.95R
CAIRO*         SUNNY     82  75  80 W6        29.95R HX  89
MARION         PTSUNNY   77  73  88 SW6       29.95R
MT. VERNON     CLOUDY    72  66  83 CALM      29.95R
CENTRALIA*     LGT RAIN  71  68  91 CALM      29.95S
SALEM*         LGT RAIN  74  72  95 N5        29.95R
$$

ILZ067-068-072-073-078-083-087-091-201500-
SOUTHEAST ILLINOIS

CITY           SKY/WX    TMP DP  RH WIND       PRES   REMARKS
LAWRENCEVILLE  SUNNY     77  73  87 S5        29.93R
FLORA*         SUNNY     76  73  88 W3        29.95R
FAIRFIELD*     CLOUDY    75  73  94 CALM      29.94R
HARRISBURG*    CLOUDY    75  75  99 CALM      29.95R
ROBINSON*      SUNNY     80  77  92 CALM      29.93S HX  85
CARMI*         PTSUNNY   79  75  89 CALM      29.94R HX  82
$$

ABBREVIATIONS USED IN REMARKS
   TC - TEMPERATURE IN CELSIUS
  WCI - WIND CHILL INDEX
   HX - HEAT INDEX
  VSB - VISIBILITY
$$




USA.gov is the U.S. government's official web portal to all federal, state and local government web resources and services.